Flag for Canada Weather past 2 weeks in Cumberland County, Nova Scotia, Canada

Now
45 °F

Quite cool.


Feels Like: 42 °F
Forecast: 49 / 71 °F
Wind: 5 mph from Southwest

Location: Kentville

Current Time: Aug 30, 2014 at 3:16:05 AM

Latest Report: Aug 30, 2014 at 2:00 AM


Visibility: N/A

Pressure: 30.25 "Hg

Humidity: 93%

Dew point: 43 °F

Location of Cumberland CountyLocation

Historic Weather in Cumberland County — Graph

°F

Cumberland County temperature yesterday

Maximum temperature yesterday: 64 °F (at 3:00 PM)
Minimum temperature yesterday: 48 °F (at 11:00 PM)
Average temperature yesterday: 58 °F

Past Weeks' High & Low Weather Summary

 TemperatureHumidityPressure
High84 °F (Aug 27, 2:00 PM)100% (Aug 15, 11:00 PM)30.25 "Hg (Aug 15, 11:00 PM)
Low45 °F (Aug 30, 2:00 AM)42% (Aug 24, 5:00 PM)29.60 "Hg (Aug 18, 6:00 PM)
Average64 °F77%29.94 "Hg
* Reported Aug 15 2:00 AM — Aug 30 2:00 AM, Cumberland County, Weather by CustomWeather, © 2014

Note: Actual official high and low records may vary slightly from our data, if they occured in-between our weather recording intervals... More about our weather records

Advertising

Cumberland County weather history for previous 24 hours

 ConditionsComfort  
Time TempWeatherWind HumidityBarometerVisibility
2:00 AM
Aug 30
45 °FQuite cool.5 mph93%30.25 "HgN/A
1:00 AM45 °FQuite cool.3 mph92%30.24 "HgN/A
12:00 AM46 °FCool.6 mph93%30.23 "HgN/A
11:00 PM
Aug 29
48 °FCool.6 mph92%30.23 "HgN/A
10:00 PM49 °FCool.2 mph90%30.22 "HgN/A
9:00 PM52 °FCool.1 mph83%30.19 "HgN/A
8:00 PM57 °FCool.5 mph63%30.17 "HgN/A
7:00 PM61 °FRefreshingly cool.5 mph54%30.15 "HgN/A
6:00 PM63 °FMild.9 mph51%30.14 "HgN/A
4:00 PM64 °FMild.12 mph49%30.10 "HgN/A
3:00 PM64 °FMild.14 mph48%30.09 "HgN/A
2:00 PM62 °FRefreshingly cool.13 mph54%30.07 "HgN/A
1:00 PM61 °FRefreshingly cool.12 mph55%30.05 "HgN/A
12:00 PM60 °FRefreshingly cool.13 mph57%30.03 "HgN/A
11:00 AM59 °FCool.12 mph66%30.02 "HgN/A
10:00 AM57 °FCool.10 mph74%29.99 "HgN/A
9:00 AM55 °FCool.8 mph88%29.96 "HgN/A
8:00 AM54 °FCool.9 mph92%29.93 "HgN/A
7:00 AM55 °FCool.10 mph90%29.89 "HgN/A
6:00 AM57 °FCool.12 mph83%29.85 "HgN/A
5:00 AM57 °FCool.10 mph84%29.83 "HgN/A
4:00 AM58 °FCool.9 mph86%29.80 "HgN/A
3:00 AM59 °FCool.8 mph88%29.78 "HgN/A
Weather by CustomWeather, © 2014

See weather overviewHow to use our weather pages